This demonstration page uses our WeatherBlox Daily Observations layout. Learn more.

41.55636, -103.73856

Hourly Observations for January 1, 2018

Temp ( °F °C ) Dew Point ( °F °C ) Humidity (%) Winds ( mph kmh ) Pressure ( in mb ) Visibility ( mi km ) Precip ( " mm )
12:10 am 00:10 Cloudy 3 -16 1 -17 92 92 ESE 12 19 30.83 1044 9 14.484096 0 0
12:42 am 00:42 Cloudy 5 -15 1 -17 85 85 ESE 12 19 30.83 1044 8 12.874752 0 0
12:53 am 00:53 Cloudy 5 -15 2 -16.7 87 87 ESE 13 20 30.68 1039 8 12.874752 0 0
1:14 am 01:14 Cloudy 5 -15 1 -17 85 85 E 13 20 30.83 1044 8 12.874752 0 0
1:53 am 01:53 Cloudy 5 -15 2 -16.7 87 87 ESE 13 20 30.68 1039 8 12.874752 0 0
2:53 am 02:53 Cloudy 5 -15 2 -16.7 87 87 ESE 12 19 30.68 1039 8 12.874752 0 0
3:53 am 03:53 Cloudy 5 -15 2 -16.7 87 87 ESE 15 24 30.65 1038 8 12.874752 0 0
4:53 am 04:53 Cloudy 5 -15 1 -17.2 83 83 ESE 16 26 30.65 1038 9 14.484096 0 0
5:53 am 05:53 Partly Cloudy 4 -15.6 1 -17.2 88 88 ESE 15 24 30.65 1038 9 14.484096 0 0
6:26 am 06:26 Mostly Cloudy 3 -16 0 -18 85 85 ESE 15 24 30.77 1042 9 14.484096 0 0
6:53 am 06:53 Partly Cloudy 3 -16.1 -1 -18.3 83 83 ESE 15 24 30.62 1037 9 14.484096 0 0
7:53 am 07:53 Sunny 2 -16.7 -2 -18.9 83 83 ESE 13 20 30.62 1037 7 11.265408 0 0
8:53 am 08:53 Sunny 2 -16.7 -1 -18.3 88 88 ESE 13 20 30.62 1037 8 12.874752 0 0
9:53 am 09:53 Sunny 3 -16.1 -1 -18.3 83 83 ESE 13 20 30.59 1036 9 14.484096 0 0
10:53 am 10:53 Sunny 5 -15 0 -17.8 79 79 ESE 12 19 30.56 1035 10 16.09344 0 0
11:53 am 11:53 Sunny 7 -13.9 1 -17.2 76 76 ESE 14 22 30.53 1034 10 16.09344 0 0
12:53 pm 12:53 Sunny 8 -13.3 2 -16.7 76 76 ESE 13 20 30.5 1033 10 16.09344 0 0
1:53 pm 13:53 Sunny 8 -13.3 3 -16.1 80 80 ESE 13 20 30.48 1032 10 16.09344 0 0
2:53 pm 14:53 Sunny 9 -12.8 4 -15.6 80 80 ESE 10 17 30.48 1032 10 16.09344 0 0
3:53 pm 15:53 Mostly Sunny 6 -14.4 1 -17.2 79 79 E 9 15 30.5 1033 9 14.484096 0 0
4:05 pm 16:05 Mostly Cloudy 6 -14.4 1 -17.2 79 79 E 10 17 30.65 1038 10 16.09344 0 0
4:53 pm 16:53 Cloudy 7 -13.9 2 -16.7 80 80 E 9 15 30.53 1034 10 16.09344 0 0
5:21 pm 17:21 Partly Cloudy 2 -16.7 -2 -18.9 83 83 E 7 11 30.71 1040 10 16.09344 0 0
5:53 pm 17:53 Clear 0 -17.8 -5 -20.6 79 79 E 7 11 30.56 1035 10 16.09344 0 0
6:53 pm 18:53 Clear -2 -18.9 -6 -21.1 83 83 E 3 6 30.59 1036 10 16.09344 0 0
7:53 pm 19:53 Clear -4 -20 -6 -21.1 91 91 NNW 6 9 30.62 1037 10 16.09344 0 0
8:53 pm 20:53 Clear -6 -21.1 -8 -22.2 91 91 NW 8 13 30.65 1038 7 11.265408 0 0
9:53 pm 21:53 Clear -6 -21.1 -10 -23.3 83 83 NW 8 13 30.65 1038 7 11.265408 0 0
10:53 pm 22:53 Clear -6 -21.1 -9 -22.8 86 86 NNW 7 11 30.65 1038 7 11.265408 0 0
11:16 pm 23:16 Mostly Clear -8 -22 -11 -24 84 84 NW 8 13 30.89 1046 7 11.265408 0 0
11:47 pm 23:47 Mostly Cloudy -8 -22 -11 -24 84 84 WNW 9 15 30.89 1046 7 11.265408 0 0
11:53 pm 23:53 Mostly Cloudy -6 -21.1 -10 -23.3 83 83 WNW 8 13 30.65 1038 8 12.874752 0 0

Powered by AerisWeather